CZ-6A DEB, 54560

Orbit data source: Space-Track

CZ-6A DEB, 54560 is space debris in SSO originally from a launch on Fri, 11 Nov 2022 UTC launched from the Taiyaun Space Center, China (TSC). Debris objects in space refer to the collection of defunct objects orbiting the Earth. Examples of debris include non-operational satellites, rocket bodies, and fragments generated from explosions, collisions, or faulty payload assembly.

Loading next visibility...
Identifier
54560, 2022-151LL
Orbit
SSO
Country
Flag of CNCN / PRC
Related business
Manufacturer
SAST
Mission
Spacecraft
Bus & Motor
Unknown
Mass
Unknown
Launch date (UTC)
2022-11-11 (4 years ago)
Launch vehicle
Unknown
Launch site
Taiyaun Space Center, China (TSC)
Object type
Payload
Rocket body
Debris
Shape & HBR
Unknown shape, 1.5 m
Radar Cross Section
Large (>1 m²)

Expand to show TLE details & history
Last TLE update: 23 hours ago

TLE from 23 hours ago
0 CZ-6A DEB
1 54560U 22151LL  26235.42035008  .00000305  00000-0  20009-3 0  9993
2 54560  98.8529 229.2715 0059430 175.3812 184.7918 14.08348145193918
Epoch: 2026-08-23T10:05Z
TLE epoch observation values (Epoch: 2026-08-23T10:05:18.246Z)
Latitude
-0.00007°
Longitude
106.22883°
Altitude
910.83 km
Speed
7.375 km/s
True Right ascension
15h 17m 05s
True Declination
0° 00' 00"
Sunlit
Object was in daylight at epoch
Visualization orbit readout
Latitude
Unknown
Longitude
Unknown
Altitude
Unknown
Speed
Unknown
Apparent Right ascension
Unknown
Apparent Declination
Unknown
Sunlit
N/A
Visualization observer readout
Local Sidereal Time
00:23:39
Azimuth
Unknown
Elevation
Unknown
Doppler factor
Unknown
Orbital elements
Apogee altitude
905.24 km
Perigee altitude
819.181 km
Semi-major axis
7,240.348 km
Eccentricity
0.00594
Inclination
98.8529°
RAAN
229.2715°
Arg. of periapsis
175.3812°
True anomaly
184.73533°
Mean anomaly
184.7918°
Eccentric anomaly
184.76352°
Mean motion
3.52293 °/min
Orbital period
102.19 mins
BSTAR
0.00020009
Loading maneuver chart data...
Computing Atmospheric mass density...
Loading historical data...
Loading historical data...
Loading historical data...
Loading historical data...
Loading historical data...
Loading historical data...
Loading historical data...

Documentation

Showing up to 5 results
|